sat.trackr.live / text

‹ back to catalog

STARLINK-36355

NORAD 68298 · 2026-057E

PAYLOAD ACTIVE UNKNOWN

§ Identity

Operator
Country
US
Launch date
2026-03-20
Launch site
AFWTR
Launch vehicle
Mass (kg)
RCS (m²)

Purposes: comms

External: N2YO · Heavens-Above · Gunter

§ Orbital elements

Epoch: 2026-05-24T21:36:18.283104Z

Period
91.42 min
Inclination
97.2848°
Eccentricity
0.0002516
Mean motion
15.75181712 rev/d
Perigee alt
342.4 km
Apogee alt
345.8 km
Semi-major
6,722.3 km
B*
1.3311e-3
RAAN
271.1528°
Arg perigee
58.5059°
Mean anomaly
301.6452°
Rev number
1,028

§ Raw data

STARLINK-363551 68298U 26057E   26144.90021161  .00203151  00000+0  13311-2 0  99922 68298  97.2848 271.1528 0002516  58.5059 301.6452 15.75181712 10285

JSON: /api/v1/satellites/68298 · /tle

For live sub-satellite position, see the globe view (requires WebGL).

§ Visibility from observer

Set your observer location to see the next 7 days of passes ≥ 10°. The values pass through the URL so the page stays shareable.

No JS? Fill the form by hand. The geolocation button needs JavaScript.